Tracking 32420 objects as of 8-Dec-2025
HD Live streaming from Space Station
objects crossing your sky now

APSTAR 1

Track APSTAR 1 now!
APSTAR 1 is classified as:


NORAD ID: 23185
Int'l Code: 1994-043A
Perigee: 36,041.3 km
Apogee: 36,050.7 km
Inclination: 13.1 °
Period: 1,449.0 minutes
Semi major axis: 42416 km
RCS: 25.1188 m2 (large)
Launch date: July 21, 1994
Source: People's Republic of China (PRC)
Launch site: Xichang Space Center, China (XSC)

24 C-band transponders.
Your satellite tracking list
Your tracking list is empty




NASA's NSSDC Master Catalog

Two Line Element Set (TLE):
1 23185U 94043A   25341.82119346 -.00000018  00000-0  00000-0 0  9998
2 23185  13.1280  19.2718 0001110 323.3018 227.5683  0.99378735 43176
Source of the keplerian elements: AFSPC